Regional Weather Roundup
Issued by NWS

Home | Current Version | Previous Version | Graphics & Text | Print | Product List | Glossary On
Versions: 1 2 3 4 5 6 7 8 9 10 11 12 13 14 15 16 17 18 19 20 21 22 23 24 25 26 27 28 29 30 31 32 33 34 35 36 37 38 39 40 41 42 43 44 45 46 47 48 49 50
000
ASUS43 KBIS 241202
RWRND

NORTH DAKOTA REGIONAL WEATHER ROUNDUP
NATIONAL WEATHER SERVICE BISMARCK ND
700 AM CDT SUN JUL 24 2016

NOTE: "FAIR" INDICATES FEW OR NO CLOUDS BELOW 12,000 FEET WITH NO
SIGNIFICANT WEATHER AND/OR OBSTRUCTIONS TO VISIBILITY.


NDZ001>003-009>011-017-241300-
NORTHWEST NORTH DAKOTA

CITY           SKY/WX    TMP DP  RH WIND       PRES   REMARKS
WILLISTON      CLEAR     57  52  83 SE3       30.02R
6HR MIN TEMP:  57; 6HR MAX TEMP:  63;

MINOT          PTCLDY    65  55  70 W12       29.94R
MINOT AFB      PTCLDY    60  56  87 W12       29.93R
$$

NDZ018>021-031>035-040>046-241300-
SOUTHWEST NORTH DAKOTA

CITY           SKY/WX    TMP DP  RH WIND       PRES   REMARKS
BISMARCK       CLEAR     61  56  83 NW7       30.00R
6HR MIN TEMP:  60; 6HR MAX TEMP:  68;

DICKINSON      CLEAR     52  49  89 W8        30.05R
GARRISON         N/A     58  57  97 W7        29.99R
6HR MIN TEMP:  58; 6HR MAX TEMP:  63;

HETTINGER ARPT MOCLDY    52  48  86 NW6       30.08S
$$

NDZ004>008-012>016-024-026-027-054-241300-
NORTHEAST NORTH DAKOTA

CITY           SKY/WX    TMP DP  RH WIND       PRES   REMARKS
GRAND FORKS    PTCLDY    62  59  90 W6        29.82R
GRND FRKS AFB  CLEAR     64  58  82 W8        29.84R
DEVILS LAKE    CLEAR     63  59  87 W15       29.89R
$$

NDZ022-023-025-028>030-036>039-047>053-241300-
SOUTHEAST NORTH DAKOTA

CITY           SKY/WX    TMP DP  RH WIND       PRES   REMARKS
FARGO          CLEAR     64  59  83 W9        29.86R
6HR MIN TEMP:  62; 6HR MAX TEMP:  71;

JAMESTOWN      CLEAR     63  59  87 NW9       29.92R
$$





USA.gov is the U.S. government's official web portal to all federal, state and local government web resources and services.